Location: Fort Wayne
(41.1310°N, 85.1290°W)
Time: 05:17:43
(UTC-05:00)

Meteor 2-10 Rocket - Visible Passes

Search period start: 21 January 2018 00:00
Search period end: 31 January 2018 00:00
Orbit: 734 x 885 km, 81.2° (Epoch: 20 January)

Date Brightness Start Highest point End Pass type
(mag) Time Alt. Az. Time Alt. Az. Time Alt. Az.
21 Jan 5.6 19:56:36 10° N 19:57:19 14° N 19:57:19 14° N visible
22 Jan 5.0 19:32:31 10° N 19:34:16 20° NNE 19:34:16 20° NNE visible
22 Jan 6.2 21:14:57 10° NW 21:15:29 12° NW 21:15:29 12° NW visible
23 Jan 4.6 19:08:34 10° NNE 19:11:38 23° NE 19:11:38 23° NE visible
23 Jan 5.3 20:50:15 10° NNW 20:52:54 26° NW 20:52:54 26° NW visible
24 Jan 4.8 18:44:49 10° NNE 18:48:11 18° ENE 18:50:05 15° E visible
24 Jan 4.2 20:25:43 10° NNW 20:30:34 50° W 20:31:31 44° SW visible
25 Jan 5.1 18:21:34 10° NE 18:23:38 12° ENE 18:25:42 10° E visible
25 Jan 3.5 20:01:18 10° NNW 20:06:18 73° W 20:11:17 10° S visible
26 Jan 6.6 07:24:17 10° ESE 07:27:08 14° E 07:29:57 10° NE visible
26 Jan 3.2 19:36:58 10° N 19:42:00 78° E 19:47:01 10° SSE visible
26 Jan 6.6 21:22:28 10° WNW 21:23:16 10° W 21:24:04 10° W visible
27 Jan 3.5 19:12:45 10° N 19:17:40 53° ENE 19:22:33 10° SSE visible
27 Jan 6.2 20:56:17 10° NW 20:59:10 16° W 21:02:05 10° WSW visible
28 Jan 3.9 18:48:37 10° N 18:53:17 37° ENE 18:57:55 10° SE visible
28 Jan 5.7 20:31:14 10° NW 20:35:03 22° W 20:38:53 10° SW visible
29 Jan 4.3 18:24:38 10° NNE 18:28:51 26° ENE 18:33:04 10° SE visible
29 Jan 5.2 20:06:29 10° NNW 20:10:53 32° W 20:15:19 10° SSW visible
30 Jan 4.5 19:41:54 10° NNW 19:46:41 46° W 19:51:28 10° SSW visible
